Regional Weather Roundup
Issued by NWS

Home | Current Version | Previous Version | Graphics & Text | Print | Product List | Glossary On
Versions: 1 2 3 4 5 6 7 8 9 10 11 12 13 14 15 16 17 18 19 20 21 22 23 24 25 26 27 28 29 30 31 32 33 34 35 36 37 38 39 40 41 42 43 44 45 46 47 48 49 50
000
ASUS45 KABQ 200301
RWRNM
WEATHER ROUNDUP FOR NEW MEXICO
NATIONAL WEATHER SERVICE ALBUQUERQUE NM
900 PM MDT SUN OCT 19 2014

NOTE: "FAIR" MEANS FEW OR NO CLOUDS BELOW 12,000 FEET AGL WITH NO
       SIGNIFICANT WEATHER OR OBSTRUCTIONS TO VISION.

      THIS PRODUCT IS RELEASED AS TWO VERSIONS.  ONE VERSION NEAR
      THE TOP OF THE HOUR CONTAINING PRELIMINARY DATA FROM ALBUQUERQUE
      AND OTHER STATIONS.  A FINAL VERSION WITH ADDITIONAL DATA IS
      ISSUED ABOUT 10 MINUTES AFTER THE HOUR.

NMZ501-503-504-510>518-200400-
NORTHWEST PLATEAU/NORTHCENTRAL MOUNTAINS

CITY           SKY/WX    TMP DP  RH WIND       PRES   REMARKS
FARMINGTON     MOCLDY    56  46  69 N17       30.13F
LOS ALAMOS     PTCLDY    51  39  63 CALM      30.26R
SANTA FE       PTCLDY    53  40  61 NE6       30.19F
TAOS           CLOUDY    52  37  58 E5        30.27R
ANGEL FIRE     CLOUDY    40  38  92 CALM      30.34R

$$
NMZ402-403-502-505>509-200400-
WESTCENTRAL MOUNTAINS/SOUTHWEST MOUNTAINS

CITY           SKY/WX    TMP DP  RH WIND       PRES   REMARKS
GALLUP         CLEAR     45  42  89 E3        30.17R
GRANTS         CLEAR     43  37  81 NW5       30.20S
SILVER CITY    CLOUDY    55  48  76 W9        30.11S

$$
NMZ407-409-411-412-200400-
SOUTHERN DESERTS

CITY           SKY/WX    TMP DP  RH WIND       PRES   REMARKS
LORDSBURG      RAIN      59  50  72 MISG      30.08R
DEMING         MOCLDY    57  52  83 NE13      30.05R
LAS CRUCES     CLOUDY    56  55  94 W13G21    30.13R THUNDER
HOLLOMAN AFB   MOCLDY    62  46  55 NW6       30.01S
T OR C         CLOUDY    57  49  74 NW5       30.08S

$$
NMZ519>523-200400-
CENTRAL VALLEYS/CENTRAL HIGHLANDS

CITY           SKY/WX    TMP DP  RH WIND       PRES   REMARKS
ALBUQUERQUE    PTCLDY    60  40  47 E13       30.14S
DOUBLE EAGLE   PTCLDY    50  39  66 N3        30.17S
MORIARTY ARPT  FAIR      51  39  62 N3        30.18F
CLINES CORNERS MOCLDY    51  39  63 NE9       30.19F
BELEN          NOT AVBL
SOCORRO        FAIR      53  47  79 CALM      30.11S

$$
NMZ524>526-539-540-200400-
SOUTHCENTRAL MOUNTAINS

CITY           SKY/WX    TMP DP  RH WIND       PRES   REMARKS
RUIDOSO        NOT AVBL

$$
NMZ527>531-200400-
NORTHEAST HIGHLANDS/NORTHEAST PLAINS

CITY           SKY/WX    TMP DP  RH WIND       PRES   REMARKS
LAS VEGAS      MOCLDY    50  41  71 SW10      30.24F
RATON          PTCLDY    52  39  61 N5        30.20R
CLAYTON        CLEAR     57  48  72 W7        30.11R

$$
NMZ532>537-200400-
EASTCENTRAL PLAINS

CITY           SKY/WX    TMP DP  RH WIND       PRES   REMARKS
TUCUMCARI      MOCLDY    61  48  62 S8        30.07R
CANNON AFB     PTCLDY    57  52  82 S5        30.11R
CLOVIS AIRPORT PTCLDY    55  52  88 S5        30.14R

$$
NMZ028-029-538-200400-
SOUTHEAST PLAINS

CITY           SKY/WX    TMP DP  RH WIND       PRES   REMARKS
ROSWELL        PTCLDY    60  52  74 W3        30.08R
CARLSBAD       MOCLDY    65  57  75 CALM      30.03R
HOBBS          PTCLDY    63  55  77 E7        30.09R


$$


USA.gov is the U.S. government's official web portal to all federal, state and local government web resources and services.